Volver al catálogo

STARLINK-37000

ActivoComunicacionesVLEO
NORAD 68063·PAYLOAD·🇺🇸 United States

Lanzado Mar 2, 2026 desde Vandenberg Space Force Base

Loading…

Próximos Pases (próximas 24 horas)

TLE

ActualizadoSource: CelesTrak SupGP

Época: Sep 14, 2026, 21:10 UTC

1 68063C 26041Z   26257.88243056  .00053615  00000+0  15840-2 0  2570
2 68063  53.1579 246.3026 0001339  91.0470 213.7099 15.34365029    15

Sigue STARLINK-37000 en tiempo real con AllMySat

Download on the App Store